Voltar ao catálogo

FENGYUN 1C DEB

AtivoPO
NORAD 30221·DEBRIS·🇨🇳 China

Lançado May 10, 1999 de Taiyuan Satellite Launch Center

Loading…

Próximas Passagens (próximas 24 horas)

TLE

AtualizadoSource: Space-Track

Época: Sep 14, 2026, 18:23 UTC

1 30221U 99025WE  26257.76665911  .00000435  00000-0  12126-3 0  9993
2 30221  98.9583   5.8410 0142737 297.1844  61.4857 14.46340438 33913

Acompanhe FENGYUN 1C DEB em tempo real com AllMySat

Download on the App Store